Temp
18 19 20 20 19 18 18 17 15 15 18 16 15 14 14 14 14 14 12 11 11 10 11 13 13 13 12 12 12 12 10 10 10 9 8 7 6 5 5 5 5 4 4 3
17 17 17 17 16 17 18 19 18 18 17 16 15 14 14 14 13 12 11 11 11 11 12 12 12 12 12 11 10 10 9 9 9 8 7 6 5 4 2 4 4 4 3 3
12 13 12 12 16 18 19 19 18 16 17 14 13 13 12 10 11 11 10 10 10 11 11 12 12 12 10 9 9 9 8 7 7 6 6 5 4 2 1 4 4 3 3 2
9 9 11 17 19 18 17 17 17 16 14 13 12 12 10 10 10 9 10 10 10 11 11 12 10 9 9 9 9 8 7 5 5 5 4 4 3 0 1 2 2 3 1 1
9 10 13 17 18 16 16 15 15 14 13 12 12 12 10 10 11 10 10 11 12 12 12 10 9 9 9 8 8 7 5 4 4 3 2 2 1 1 -0 2 2 2 1 -0
9 8 8 13 17 17 17 11 14 13 11 11 11 7 9 10 10 10 12 12 12 11 10 9 9 9 8 8 7 5 4 3 3 3 2 1 1 1 2 1 1 0 -1 -2
6 6 9 14 17 17 12 11 13 12 10 10 9 8 9 10 10 12 12 11 10 10 9 9 9 8 8 6 5 4 3 3 2 2 2 2 1 1 2 1 -0 -1 -2 -3
10 10 9 15 17 13 12 12 11 10 10 10 10 9 10 11 10 11 10 10 10 9 8 8 8 8 6 4 4 3 3 2 2 2 2 2 2 2 1 0 -1 -2 -3 -3
10 10 12 16 14 13 13 11 10 9 10 10 9 10 10 10 10 10 9 9 9 8 8 8 7 5 4 3 3 2 1 1 1 1 1 1 1 1 -0 -1 -2 -3 -3 -4
12 15 16 13 12 11 10 10 10 10 10 10 10 10 10 9 8 8 9 8 8 8 7 6 6 4 3 3 2 1 0 -0 -1 -1 -1 -0 -0 -1 -2 -2 -3 -3 -4 -5
12 15 15 12 11 11 9 9 10 11 11 11 10 10 9 7 7 7 7 7 7 6 6 5 4 3 3 3 2 1 -0 -1 -2 -2 -2 -1 -1 -2 -2 -3 -3 -4 -4 -5
9 13 12 10 10 10 9 9 10 10 10 11 9 7 7 7 7 6 6 6 5 5 5 3 2 2 2 2 1 0 -1 -2 -2 -2 -2 -2 -2 -2 -3 -3 -3 -4 -4 -5
12 11 10 9 10 10 9 10 10 11 10 7 8 7 7 6 6 5 5 5 4 3 3 2 2 1 0 -0 -1 -1 -1 -2 -2 -2 -3 -3 -3 -3 -4 -3 -4 -4 -4 -5
11 10 9 9 9 10 11 11 11 9 8 7 7 6 5 5 4 4 3 3 2 2 1 1 2 1 -0 -2 -2 -1 -1 -2 -2 -3 -3 -3 -4 -4 -4 -4 -4 -4 -4 -5
10 10 9 9 10 11 11 10 7 7 6 6 6 5 4 3 2 2 2 1 1 0 -0 -1 -1 -0 -1 -2 -2 -2 -2 -1 -2 -2 -3 -4 -4 -4 -4 -4 -4 -4 -4 -6
10 10 9 9 10 9 8 7 6 5 5 5 4 4 3 2 1 1 0 0 -1 -2 -1 -1 -1 -0 -1 -2 -2 -2 -2 -2 -2 -2 -3 -4 -4 -4 -4 -4 -4 -4 -5 -5
10 9 9 8 7 7 6 6 5 4 4 4 3 3 2 1 0 -0 -1 -1 -2 -2 -2 -1 -0 -0 -1 -2 -2 -3 -3 -3 -3 -3 -3 -4 -4 -4 -4 -4 -5 -5 -5 -5
10 9 8 7 7 6 4 4 4 4 3 3 3 2 1 0 -1 -1 -2 -2 -2 -2 -2 -1 -1 -1 -1 -2 -3 -3 -3 -4 -4 -4 -4 -4 -4 -4 -4 -4 -5 -5 -5 -5
9 8 8 7 6 5 4 4 4 3 3 2 2 1 0 -1 -1 -1 -2 -1 -1 -1 -1 -1 -1 -1 -2 -2 -3 -3 -4 -4 -4 -4 -4 -4 -4 -4 -4 -4 -5 -5 -5 -5
6 6 6 5 5 4 4 4 3 2 2 1 1 -0 -2 -1 -1 -1 -1 -1 -1 -1 -1 -2 -1 -1 -2 -3 -3 -3 -3 -4 -4 -3 -4 -4 -4 -4 -4 -4 -4 -5 -5 -5
5 5 5 5 5 4 3 3 2 2 2 1 0 -1 -1 -1 -1 -1 -1 -1 -1 -1 -1 -1 -1 -2 -2 -3 -3 -3 -3 -3 -4 -4 -4 -4 -4 -4 -4 -4 -4 -5 -5 -5
5 4 5 4 3 3 3 3 2 2 2 1 1 -0 -1 -1 -0 -1 -1 -1 -1 -1 -2 -2 -2 -2 -2 -2 -3 -3 -3 -4 -4 -4 -3 -4 -4 -4 -4 -4 -4 -5 -5 -6
4 4 4 4 3 3 3 3 3 2 1 1 0 1 1 1 0 -2 -2 -1 -1 -1 -2 -2 -2 -2 -2 -2 -2 -3 -3 -3 -4 -4 -4 -3 -4 -4 -4 -4 -4 -5 -5 -5
4 4 4 4 4 3 2 3 3 3 2 3 3 2 1 0 -1 -1 -1 -1 -1 -1 -1 -2 -2 -3 -3 -3 -3 -3 -4 -4 -4 -4 -4 -4 -4 -4 -4 -5 -5 -4 -5 -5
4 4 3 3 2 2 3 3 3 3 3 3 2 1 0 -0 -1 -1 -2 -2 -2 -2 -2 -2 -2 -2 -2 -3 -3 -3 -4 -4 -4 -4 -4 -4 -4 -5 -5 -5 -5 -5 -5 -5
3 3 4 4 3 4 4 4 3 3 3 2 1 0 -0 -1 -1 -2 -2 -2 -3 -2 -2 -3 -3 -3 -3 -3 -3 -3 -3 -4 -4 -4 -4 -5 -5 -5 -5 -6 -6 -6 -6 -6
4 4 4 4 4 4 3 2 1 -0 -0 -1 -1 -1 -1 -1 -2 -2 -2 -3 -3 -3 -3 -3 -3 -3 -3 -3 -3 -3 -3 -3 -4 -4 -4 -5 -5 -5 -5 -6 -6 -7 -7 -7
Height
832 829 827 828 832 834 836 838 853 847 836 842 843 845 845 843 842 845 848 849 849 848 846 843 842 840 838 836 833 830 827 825 821 819 817 815 815 810 809 807 806 808 806 804
841 835 837 840 837 834 831 827 831 832 837 836 838 840 844 844 845 849 851 849 848 846 844 842 839 837 835 833 832 831 828 823 819 817 817 815 812 811 811 806 804 806 804 802
861 851 855 863 839 828 825 823 826 838 834 838 841 842 846 849 849 849 849 848 847 844 842 839 836 835 834 832 830 828 825 821 819 817 814 811 809 808 808 803 802 802 801 800
879 873 878 832 819 822 828 828 828 832 838 839 844 844 847 848 848 848 847 846 844 842 840 837 836 834 832 830 827 825 822 820 817 815 812 809 806 807 802 801 801 798 799 799
882 874 851 827 821 828 833 839 832 836 838 841 842 842 848 847 846 845 845 843 842 840 838 836 835 833 830 827 824 821 821 819 816 814 810 807 803 799 800 800 799 796 798 798
877 890 889 839 823 820 822 855 834 833 840 842 840 860 851 845 844 843 842 841 839 838 837 835 833 831 828 824 822 821 820 818 816 812 809 804 802 800 799 799 797 796 796 796
887 894 861 828 819 819 852 848 831 834 839 841 847 849 844 841 841 840 839 839 838 836 835 834 830 827 824 822 821 821 818 816 813 810 806 803 802 800 799 797 796 795 795 794
864 864 869 815 817 835 831 826 829 834 838 839 841 841 840 840 838 837 838 837 836 834 832 830 827 824 823 821 820 818 815 812 810 808 805 802 800 798 796 796 795 794 793 792
846 843 818 808 812 814 816 824 830 833 834 836 838 838 837 838 838 837 836 835 833 832 829 827 826 823 821 820 817 814 812 810 808 806 803 801 799 798 797 796 795 793 792 790
825 812 808 812 814 816 819 824 828 829 831 832 835 834 835 837 837 836 835 834 832 829 827 825 823 821 820 817 814 812 810 809 807 805 803 801 799 798 796 795 794 793 791 790
818 807 806 813 813 817 821 824 827 827 829 830 832 834 836 836 836 836 834 832 831 828 826 824 822 819 816 813 810 808 808 807 805 804 802 801 799 798 796 795 794 792 790 789
823 805 807 816 817 817 821 824 825 827 828 830 832 835 835 836 835 834 832 830 828 826 824 821 818 816 814 810 808 806 805 804 804 802 801 799 798 797 796 795 793 791 789 787
803 805 806 812 816 817 821 823 825 826 828 832 833 834 834 835 835 833 831 829 827 825 822 819 815 814 812 810 807 804 803 802 801 800 799 798 797 796 794 793 791 790 787 786
801 805 812 812 816 817 818 821 824 828 829 831 833 833 834 833 832 831 829 827 825 822 819 816 812 810 808 806 804 802 800 799 798 798 798 796 796 795 794 792 789 788 786 784
801 802 806 811 814 816 819 822 825 828 830 832 833 833 832 831 830 828 827 824 821 819 815 811 808 805 804 802 800 799 797 795 795 795 795 794 793 793 792 790 788 787 785 783
800 803 808 811 815 818 820 823 826 830 831 832 832 831 830 829 827 825 823 821 818 813 810 806 803 800 799 798 796 796 794 793 792 792 792 791 790 790 789 787 786 784 783 781
797 804 809 813 817 819 822 825 828 830 830 830 829 828 827 825 823 821 819 817 814 810 807 802 798 796 795 794 793 792 791 790 789 788 788 787 787 786 785 784 783 781 780 778
799 806 810 814 818 822 825 826 827 827 827 827 827 825 823 822 820 817 815 812 808 805 802 798 795 792 790 790 790 789 788 787 786 786 785 784 783 782 781 780 779 777 776 775
806 810 814 818 821 822 823 824 825 825 824 823 822 821 820 818 817 815 812 809 805 800 796 794 791 788 786 786 786 786 785 784 783 783 781 780 779 778 777 776 775 774 772 771
813 816 819 820 821 822 822 822 822 821 820 819 818 817 815 814 812 810 807 803 801 797 792 790 787 784 783 782 782 781 780 780 779 778 777 775 774 773 772 771 771 770 768 767
817 818 819 819 820 820 819 819 818 816 815 815 814 813 811 808 807 805 801 797 794 791 787 785 783 780 779 778 778 777 776 775 774 773 773 771 770 769 768 767 766 766 764 763
816 817 818 817 817 816 815 814 813 812 811 810 809 807 806 803 800 797 796 793 788 787 783 780 778 775 774 773 773 772 771 770 769 768 767 767 766 765 764 763 762 762 761 760
816 816 815 814 813 812 811 810 808 807 805 804 803 801 800 798 796 793 788 787 785 782 779 775 773 770 769 768 767 766 765 764 763 763 762 761 761 760 759 758 758 757 757 756
814 813 811 810 810 809 807 805 803 801 800 798 796 796 795 792 789 788 784 781 779 777 774 770 767 765 763 762 760 759 758 757 756 756 755 755 754 754 753 753 752 751 751 750
810 809 808 807 806 805 803 800 798 796 794 792 791 791 791 789 787 782 780 776 773 770 767 764 761 759 757 755 753 752 750 749 749 749 748 748 748 748 747 747 747 746 745 744
807 806 805 804 803 801 798 796 793 790 789 787 786 786 784 783 781 778 775 772 768 765 762 759 756 753 750 747 745 743 741 740 740 741 741 741 741 741 741 741 741 740 740 740
805 804 802 800 799 796 794 792 790 788 787 785 782 781 779 777 775 773 770 767 764 761 758 754 750 747 744 741 738 735 733 732 732 732 733 733 734 734 735 735 734 734 734 734
Wind_Speed
4 5 4 3 5 7 5 5 4 7 4 8 7 8 7 6 6 9 9 9 8 6 14 16 13 16 17 22 25 27 11 23 25 24 20 12 17 21 15 9 9 5 9 11
1 6 7 4 7 8 8 2 3 5 4 7 6 7 8 5 7 8 7 5 5 8 13 15 15 15 21 20 22 21 25 27 29 26 15 23 22 11 11 9 2 10 11 12
2 4 5 4 4 5 4 3 3 3 1 7 10 9 7 7 6 5 5 5 6 10 16 18 15 17 17 19 22 23 27 20 25 25 19 15 14 14 14 5 6 11 13 6
2 4 2 5 2 5 6 4 6 8 9 11 6 6 7 6 5 6 6 6 9 16 17 17 12 16 18 18 20 23 18 21 22 22 21 17 12 10 3 8 11 11 6 7
3 1 6 5 3 4 4 3 6 6 6 7 4 5 4 4 3 3 6 12 10 16 15 13 15 18 17 18 19 19 16 17 19 20 19 16 9 8 5 9 6 6 9 12
2 4 6 6 5 5 1 3 4 6 6 4 5 2 4 6 6 8 7 14 14 16 18 17 20 20 18 17 16 15 17 17 16 18 16 15 8 4 8 6 5 7 9 15
3 3 7 8 5 4 5 6 2 6 5 3 1 4 5 7 7 7 13 13 16 19 15 18 24 27 20 12 14 15 15 17 19 19 19 11 13 15 12 3 6 8 13 13
3 3 7 7 4 8 6 4 6 6 4 3 2 5 5 3 6 10 10 14 16 15 19 24 27 19 13 14 14 16 15 17 19 19 20 16 13 10 6 6 8 12 14 15
8 6 7 4 6 4 4 6 4 6 5 4 5 4 3 4 6 8 10 14 11 18 21 22 17 13 12 12 15 12 14 16 17 19 17 13 15 10 8 9 11 11 13 15
4 6 6 6 6 6 7 7 7 5 5 4 3 3 4 4 7 12 15 15 19 20 16 16 14 12 13 14 11 10 12 15 16 15 14 13 13 10 11 14 14 13 14 14
3 3 4 8 9 8 8 7 5 5 4 3 4 4 5 5 9 12 15 18 19 20 19 15 16 19 18 17 13 8 12 13 13 15 14 12 9 9 14 14 14 14 14 12
5 4 4 4 6 8 7 5 6 4 5 5 11 6 10 7 12 16 17 20 20 21 19 14 19 22 21 13 9 9 9 11 13 14 13 9 10 11 13 14 14 14 13 11
4 4 8 8 6 7 6 7 6 7 6 6 12 11 11 9 13 16 19 20 18 20 19 17 19 20 13 13 11 7 9 10 10 12 9 10 12 14 16 15 13 14 13 10
11 9 5 5 4 8 7 10 8 13 15 13 11 10 10 10 13 17 17 19 22 19 23 23 22 18 18 22 12 11 12 11 8 8 12 12 10 12 12 14 15 16 12 8
7 6 5 7 6 7 7 12 8 7 9 9 8 7 8 11 14 16 19 21 18 23 20 22 20 19 17 17 12 12 13 14 10 8 10 11 11 10 12 13 13 13 13 7
7 8 8 6 4 7 7 8 7 5 6 5 5 7 9 15 16 19 19 17 21 22 27 27 23 21 18 13 11 12 13 13 8 11 11 10 11 9 13 12 12 14 13 11
8 8 6 7 7 7 7 8 6 2 4 5 8 10 15 15 17 18 21 21 21 21 26 25 25 20 17 14 12 12 10 6 8 11 12 12 11 11 10 14 16 15 13 11
15 13 12 9 6 6 5 4 2 4 6 8 14 13 15 16 16 20 18 22 23 22 21 23 21 19 16 12 12 13 13 12 10 12 13 13 14 14 11 14 14 14 12 12
18 13 14 12 7 5 2 2 4 8 13 13 13 14 15 16 15 17 20 21 21 23 23 26 21 22 16 13 12 11 11 12 12 12 13 15 15 14 15 14 13 14 15 15
14 12 8 4 2 2 5 7 9 12 14 12 11 13 12 14 16 18 21 20 20 24 26 26 24 21 15 13 12 13 14 12 12 13 14 15 15 16 16 14 13 13 14 15
4 2 2 3 7 8 9 10 12 13 14 12 12 13 16 19 19 20 17 16 23 25 27 18 22 20 16 15 14 17 18 17 15 15 14 15 15 15 15 16 11 12 13 13
1 2 5 8 10 11 11 12 13 14 15 16 16 14 15 19 22 22 18 20 27 23 26 22 23 18 17 16 17 14 15 16 17 17 17 16 16 15 14 12 13 13 14 12
5 7 8 9 11 13 14 14 18 20 21 17 17 16 15 20 23 19 17 19 21 24 28 27 23 20 19 19 19 19 21 21 20 19 20 19 18 18 18 18 17 15 14 14
8 9 11 12 12 13 15 22 21 20 19 21 21 17 16 20 24 20 22 23 26 24 25 25 23 20 20 21 23 21 22 21 20 20 20 20 19 18 17 16 18 20 18 14
13 13 13 15 14 17 20 20 20 22 18 19 15 10 12 16 18 24 25 25 27 28 26 24 23 21 22 23 24 25 26 24 23 22 21 19 18 18 18 19 18 16 17 19
12 14 16 16 17 20 23 25 23 26 24 17 11 13 16 16 20 22 22 23 23 23 25 25 23 24 25 26 27 28 29 28 24 23 23 21 19 19 18 17 18 18 17 15
15 14 14 16 20 23 23 20 16 17 13 12 16 17 16 18 21 21 22 21 22 21 22 25 26 25 25 27 27 30 30 28 25 23 21 21 19 18 17 16 16 16 16 16
Wind_Direction
1 340 329 336 335 334 310 248 188 255 229 91 106 88 66 53 20 55 46 38 16 341 329 337 352 351 353 343 336 337 302 316 301 301 296 252 271 276 253 261 285 302 330 325
300 36 17 314 297 275 257 265 29 23 96 139 119 83 43 30 60 58 41 2 342 329 337 337 343 344 333 349 7 355 342 338 333 317 311 315 306 282 297 272 308 333 324 323
255 356 350 9 243 307 312 354 286 280 158 96 60 44 41 72 70 57 19 0 333 318 314 311 318 330 27 8 359 0 358 357 354 352 342 326 310 289 287 308 347 330 322 332
213 14 32 228 342 74 102 38 3 82 76 81 71 67 103 75 54 13 356 317 293 293 297 326 21 16 6 3 359 354 7 8 360 356 352 333 331 290 241 354 326 324 36 359
115 216 300 322 121 109 112 303 70 99 83 73 41 110 92 88 51 306 281 295 314 337 353 21 17 0 356 354 353 1 15 6 353 348 342 337 308 304 344 315 338 19 357 345
97 140 212 229 123 95 76 255 14 92 97 62 44 58 261 343 322 299 332 336 351 16 10 14 359 347 343 343 6 15 4 356 351 345 345 335 325 296 295 319 23 25 19 6
146 220 282 247 160 126 105 233 116 112 115 95 193 197 235 270 294 344 345 355 14 8 12 355 345 338 333 19 18 2 356 355 352 347 348 345 318 310 323 32 75 28 15 20
183 208 273 223 144 155 200 157 136 117 122 130 202 269 283 15 358 340 356 13 6 10 354 343 335 344 25 27 1 349 348 351 350 345 339 340 326 329 9 58 24 11 11 6
179 211 226 205 182 132 130 123 130 133 158 163 227 268 40 339 335 351 8 354 2 355 337 339 5 12 18 354 343 346 353 355 351 347 355 25 42 48 44 28 16 15 5 356
112 244 230 134 94 106 110 122 132 133 177 204 243 32 349 349 3 8 357 6 350 344 350 351 355 2 356 344 339 344 345 347 352 6 9 11 8 32 33 17 7 1 355 345
256 290 63 55 116 124 118 121 138 187 212 120 48 19 41 29 11 5 1 355 353 349 344 349 351 346 341 331 314 319 336 341 343 347 345 350 22 25 12 10 359 350 343 336
236 224 152 135 130 127 139 162 184 185 75 44 64 56 40 19 12 3 355 352 345 340 337 343 341 339 334 319 304 325 326 336 335 334 346 351 358 352 352 346 344 339 329 329
174 97 104 126 132 145 157 175 149 93 58 74 50 44 27 21 1 354 345 338 337 330 325 326 333 331 341 334 322 298 311 318 320 321 326 332 345 344 334 336 342 344 337 326
131 120 107 160 163 186 156 130 118 83 69 70 48 32 24 8 348 339 330 327 325 323 327 321 315 311 309 317 301 299 310 296 294 320 328 323 322 324 326 328 330 338 350 328
128 82 128 142 110 134 117 91 74 64 57 42 26 21 6 346 332 322 319 322 314 319 325 322 313 311 311 312 295 302 312 317 257 306 314 307 307 310 325 319 322 327 336 329
133 130 132 146 157 94 86 72 72 57 45 6 354 336 326 321 316 314 319 317 320 315 320 319 314 315 311 305 290 293 302 311 266 306 305 299 303 305 315 315 318 318 324 326
135 134 127 95 90 81 82 83 86 52 317 309 299 306 314 316 314 315 319 328 322 313 314 314 314 314 302 296 282 288 304 294 318 306 296 289 278 293 300 315 306 300 308 313
90 94 88 91 87 85 98 99 31 316 296 296 306 310 309 310 300 317 323 324 321 315 315 318 317 316 291 280 267 271 284 300 309 298 302 300 287 280 288 302 303 309 298 314
88 86 80 80 87 101 120 291 284 291 300 307 307 305 313 315 314 316 318 318 317 316 312 318 313 313 284 269 261 268 277 279 288 291 297 295 292 286 277 291 291 306 300 297
65 70 72 75 30 317 277 278 287 297 302 307 306 314 321 314 311 311 313 305 311 310 311 313 318 308 284 265 257 262 266 268 274 282 298 294 289 286 275 276 288 302 307 297
85 59 354 268 264 276 274 288 292 290 304 306 301 295 294 308 303 305 304 302 313 317 316 313 319 301 277 270 269 265 263 265 269 273 286 292 291 289 290 284 268 307 306 305
105 261 266 271 262 271 289 294 290 290 286 291 289 287 298 303 309 302 289 289 313 317 322 311 319 296 273 271 261 266 257 267 272 273 273 280 287 287 285 284 287 298 300 301
295 288 285 284 281 289 296 293 290 285 284 276 271 280 287 300 302 291 295 300 315 315 319 309 307 298 276 266 264 265 267 270 270 269 272 275 274 278 282 282 279 281 290 291
290 301 303 306 302 293 289 301 303 299 283 280 271 277 280 310 309 304 289 297 304 309 315 312 305 293 286 281 261 260 264 271 271 268 272 274 273 274 281 285 287 276 272 275
310 309 306 300 292 285 292 296 297 297 286 269 267 263 299 317 302 311 314 311 307 302 305 314 307 298 283 279 274 268 268 268 270 266 266 267 272 275 275 281 284 292 290 272
302 302 302 299 291 293 295 296 286 291 288 271 264 302 316 318 317 315 316 318 318 309 304 304 305 296 285 279 277 274 269 267 263 262 264 261 268 271 272 277 284 284 285 287
297 299 301 303 306 307 306 307 317 318 312 289 305 311 312 320 319 316 317 322 324 318 318 313 303 299 298 283 275 271 271 265 263 259 265 259 263 263 266 276 280 283 285 287